カタログに戻る

FENGYUN 1C DEB

運用中SSO
NORAD 29885·DEBRIS·🇨🇳 China

打ち上げ May 10, 1999 から Taiyuan Satellite Launch Center

Loading…

次のパス (今後24時間)

TLE

最新Source: Space-Track

元期: Sep 14, 2026, 14:05 UTC

1 29885U 99025GF  26257.58713483  .00000161  00000-0  98822-4 0  9999
2 29885  98.3657 179.9437 0119197  90.3497  82.5232 14.13731060 13554

AllMySatでFENGYUN 1C DEBをリアルタイム追跡

Download on the App Store